Portada
METAR-TAF:

METAR-TAF

Aeroports :

Masjed-Soleyman, Iran

latitud: 31-59N, longitud: 049-16E, altitud: 372 m

Observació

L'informe es va fer fa 35 minuts, a les 20:00 UTC
Vent 2 kt del Sud/Sud-Est
Temperatura 37°C
Humitat 8%
Pressió 998 hPa
Visibilitat 10 km o més
sense núvols per sota de 1500 mi sense presència de cumulonimbus.

METAR: OIAI 192000Z 16002KT CAVOK 37/M03 Q0998

Hora: 01:05 (20:35 UTC)


TAF: manca

Observacions i pronòstics meteorològics de més de 4000 aeroports (METAR i TAF).

Les estacions disponibles són els punts grocs i vermells al mapa.

Posi el ratolí al punt desitjat per veure el nom de l'estació.

Feu clic per veure les observacions i els pronòstics meteorològics.

Per canviar el mapa: feu clic els botons verds amb una creu de color negre per apropar; al botó verd amb un guió per allunyar la imatge; o en les fletxes verdes per a mapes adjacents.


METAR-TAF: